Regional Weather Roundup
Issued by NWS Jackson, KY

Home | Current Version | Previous Version | Text Only | Print | Product List | Glossary On
Versions: 1 2 3 4 5 6 7 8 9 10 11 12 13 14 15 16 17 18 19 20 21 22 23 24 25 26 27 28
000
ASUS43 KJKL 051410
RWRJKL

EAST KENTUCKY HOURLY WEATHER ROUNDUP
NATIONAL WEATHER SERVICE JACKSON KY
1000 AM EDT THU MAY 05 2016

NOTE: "FAIR" INDICATES FEW OR NO CLOUDS BELOW 12,000 FEET WITH
NO SIGNIFICANT WEATHER AND/OR OBSTRUCTIONS TO VISIBILITY.

* THESE REPORTS ARE NOT UNDER NWS QUALITY CONTROL AND MAY NOT
  REPORT WEATHER SUCH AS PRECIPITATION AND FOG.

KYZ079-080-083-085-087-088-110-112-115-119-120-051500
...EASTERN KENTUCKY...

CITY           SKY/WX    TMP DP  RH WIND       PRES   REMARKS
JACKSON        PTSUNNY   47  39  74 VRB3      29.76S
LONDON         LGT RAIN  45  43  93 N5        29.78R FOG
SOMERSET*      LGT RAIN  45  43  93 NW3       29.79S
MONTICELLO*    LGT RAIN  46  43  89 W9        29.80S
WILLIAMSBURG*  CLOUDY    46  46 100 CALM      29.78S
MIDDLESBORO*   DRIZZLE   46  43  91 W3        29.78S
HARLAN APT*    CLOUDY    43  37  81 W3        29.77R
HAZARD APT*    CLOUDY    45  43  93 CALM      29.77S
BLACK MTN*       N/A     34  34 100 VRB2        N/A
PIKE CO APT*   CLOUDY    44  39  81 NW3       29.76R
BIG SANDY APT* CLOUDY    46  39  77 CALM      29.77R
MOREHEAD APT*  PTSUNNY   46  39  76 N7        29.80R
$$

KYZ035-036-041-042-044-050-067-078-099-051500
...CENTRAL KENTUCKY...

CITY           SKY/WX    TMP DP  RH WIND       PRES   REMARKS
MT STERLING*   CLOUDY    45  41  87 N6        29.80R
FLEMING/MASON* CLOUDY    45  38  78 N5        29.81R
DANVILLE*      CLOUDY    43  39  87 N7        29.81R
RICHMOND*      CLOUDY    45  39  81 N6        29.78S
LEXINGTON      CLOUDY    46  38  73 N13       29.80R
FRANKFORT      PTSUNNY   46  39  76 N7        29.80R
LOUISVILLE     CLOUDY    49  39  68 N14       29.83R
LEBANON*       CLOUDY    45  41  87 N8        29.81R
BOWLING GREEN  PTSUNNY   51  42  71 NW10G21   29.83R
$$

KYZ091>093-OHZ055-061-077-WVZ005-015-034-035-042-051500
...SOUTHERN OHIO/WEST VIRGINIA...

CITY           SKY/WX    TMP DP  RH WIND       PRES   REMARKS
COVINGTON      CLOUDY    45  36  70 N10       29.82R
COLUMBUS       DRIZZLE   43  43 100 NW8       29.79R
DAYTON         LGT RAIN  43  40  89 N6        29.83R FOG
WILMINGTON     MOSUNNY   48  36  63 VRB7      29.80R
HUNTINGTON     CLOUDY    50  42  74 VRB6      29.77R
CHARLESTON     CLOUDY    47  39  74 NW6       29.76R
PINEVILLE*     CLOUDY    46  38  76 MISG      29.78R
BECKLEY        CLOUDY    40  37  89 N9        29.71R WCI  34
$$

VAZ002-007-008-TNZ017-027-036-066-071-051500
...SOUTHWEST VIRGINIA/EAST TENNESSEE...

CITY           SKY/WX    TMP DP  RH WIND       PRES   REMARKS
WISE*          CLOUDY    43  37  81 NW6       29.74S
BRISTOL        CLOUDY    49  37  63 NW7       29.74S
MORRISTOWN*    CLOUDY    48  41  76 NW6       29.76S
SEVIERVILLE*   CLOUDY    52  41  66 NW7       29.77S
KNOXVILLE      LGT RAIN  50  45  83 SW9       29.79R
OAK RIDGE      LGT RAIN  50  44  80 VRB5      29.80S
CROSSVILLE     PTSUNNY   45  41  86 W8        29.79S
NASHVILLE      MOSUNNY   56  41  57 NW15G21   29.83R
$$

...KEY TO REMARKS...
VSB - VISIBILITY IN MILES
WCI - WIND CHILL INDEX
HX  - HEAT INDEX

$$




USA.gov is the U.S. government's official web portal to all federal, state and local government web resources and services.